Regional Weather Roundup
Issued by NWS

Home | Current Version | Previous Version | Text Only | Print | Product List | Glossary Off
Versions: 1 2 3 4 5 6 7 8 9 10 11 12 13 14 15 16 17 18 19 20 21 22 23 24 25 26 27 28 29 30 31 32 33 34 35 36 37 38 39 40 41 42 43 44 45 46 47 48 49 50

000
ASUS45 KTFX 300610
RWRMT
MONTANA REGIONAL WEATHER ROUNDUP
NATIONAL WEATHER SERVICE GREAT FALLS MT
1200 AM MDT SUN APR 30 2017

NOTE: "FAIR" INDICATES FEW OR NO CLOUDS BELOW 12000 FEET WITH NO
SIGNIFICANT WEATHER AND/OR OBSTRUCTIONS TO VISIBILITY.

MTZ001>007-043-300700-
WEST OF THE DIVIDE

CITY           SKY/WX    TMP DP  RH WIND       PRES   REMARKS
KALISPELL      CLOUDY    45  38  76 SW6       30.02F
MISSOULA       CLOUDY    47  33  58 SE5       30.08F
BUTTE          CLEAR     37  25  61 CALM      30.08F
MULLAN PASS    CLOUDY    35  21  56 SW9G17    30.06F WCI  28
ANACONDA         N/A     41  21  45 W3        30.08F
DEER LODGE       N/A     43  23  45 CALM      30.10S
EUREKA           N/A     48  37  66 SE10      30.00S
HAMILTON         N/A     52  28  40 S5        30.09S
LIBBY            N/A     52  28  40 SE5       30.00F
$$

MTZ008-052>055-300700-
SOUTHWEST MONTANA

CITY           SKY/WX    TMP DP  RH WIND       PRES   REMARKS
BOZEMAN        CLEAR     37  30  75 CALM      30.06S
DILLON         CLEAR     40  23  50 S8        30.07F
W YELLOWSTONE  CLEAR     32  23  69 CALM      30.16S
ENNIS          CLOUDY    41  25  52 SE13      30.13F
THREE FORKS      N/A     38   6  26 CALM      30.04F
TWIN BRIDGES     N/A     36  22  57 CALM      30.05F
$$

MTZ009-010-012-014-046-048-049-054-300700-
EAST SLOPES AND CENTRAL MONTANA

CITY           SKY/WX    TMP DP  RH WIND       PRES   REMARKS
CUT BANK       CLOUDY    44  29  55 SW13      29.95F
GREAT FALLS    PTCLDY    38  28  67 S9        30.00F WCI  31
MALMSTROM AFB  MOCLDY    38  30  73 S7        30.00F
HELENA         PTCLDY    48  24  39 W8        30.03F
AUGUSTA        CLOUDY    44  28  52 SW9       29.99F
BOWMANS CRNR   CLOUDY    43  25  49 SW8       29.99F
CHOTEAU          N/A     45  27  49 SW5       30.00F
FAIRFIELD        N/A     41  28  60 W7        29.98F
POWER          MOCLDY    37  29  71 SW7       29.99F
RAYNESFORD       N/A     44  26  49 SW12      30.01F
ULM            MOCLDY    39  32  76 S6        30.00F
$$

MTZ011-013-016-021-045-047-050-051-300700-
NORTH CENTRAL MONTANA

CITY           SKY/WX    TMP DP  RH WIND       PRES   REMARKS
HAVRE          PTCLDY    39  33  79 VRB5      29.98F
LEWISTOWN      CLEAR     38  30  73 E5        30.03F
N BAR RANCH      N/A     39  28  65 N5        30.08F
CHINOOK          N/A     48  36  61 CALM      29.98F
DENTON           N/A     38  32  79 MISG      29.98F
FORT BENTON      N/A    N/A N/A N/A MISG      30.00F
GEYSER           N/A     38  28  67 SW13      30.01F WCI  30
GRASS RANGE      N/A     35  32  89 W8        30.00F WCI  29
JUDITH GAP       N/A     34  29  83 SW14      30.05F WCI  24
STANFORD         N/A     38  27  64 SW9       30.02F WCI  32
WINIFRED         N/A     41  30  64 S6        30.01F
$$

MTZ017>020-022>027-061-062-300700-
NORTHEAST MONTANA

CITY           SKY/WX    TMP DP  RH WIND       PRES   REMARKS
GLASGOW        CLOUDY    45  36  70 CALM      30.05F
JORDAN           N/A     42  25  50 S8        30.05F
SIDNEY         PTCLDY    39  30  70 CALM      30.11F
WOLF POINT     PTCLDY    41  30  65 CALM      30.07F
PLENTYWOOD       N/A     45  34  65 SE7       30.06F
POPLAR           N/A     45  32  61 SE7       30.07F
SCOBEY           N/A     45  31  58 S13       30.05F
$$

MTZ028>42-056>058-300700-
SOUTHCENTRAL AND SOUTHEAST MONTANA

CITY           SKY/WX    TMP DP  RH WIND       PRES   REMARKS
BILLINGS       CLEAR     44  29  55 S5        30.06F
LIVINGSTON     CLEAR     34  27  75 CALM      30.05F
MILES CITY     CLEAR     44  29  55 S10       30.11F
BIG TIMBER     CLEAR     39  32  75 CALM      30.08F
EKALAKA          N/A     44  18  35 SE1       30.11
LAUREL           N/A     43  28  55 SW5       30.04
ROUNDUP          N/A     44  25  47 SE6       29.97F
$$

REGIONAL REPORTS...DAKOTAS

CITY           SKY/WX    TMP DP  RH WIND       PRES   REMARKS
WILLISTON      CLEAR     43  33  68 CALM      30.10F
MINOT          CLOUDY    52  21  29 S13       30.12F
DICKINSON      CLEAR     34  19  54 S8        30.13F WCI  27
BEACH            N/A     36  23  60 S7        30.16F WCI  30
TIOGA            N/A     43  30  61 S14       30.12F
WATFORD CITY     N/A     36  30  80 CALM      30.11F
BISMARCK       CLOUDY    42  25  50 S7        30.18F
FARGO          CLOUDY    44  28  53 CALM      30.19F
BUFFALO SD       N/A     40  23  50 S5        30.10F
RAPID CITY     CLEAR     30  21  69 NW6       30.17F WCI  24
$$

REGIONAL REPORTS...WYOMING/IDAHO/WASHINGTON

CITY           SKY/WX    TMP DP  RH WIND       PRES   REMARKS
GILLETTE       CLEAR     30  20  66 SW10      30.16F WCI  21
SHERIDAN       CLEAR     28  22  78 CALM      30.14F
BUFFALO WY     CLEAR     31  19  61 SW5       30.15F
CODY           CLEAR     34  28  79 S6        30.14F WCI  29
YELLOWSTONE LA   N/A     21  19  92 CALM      30.20S
IDAHO FALLS    CLOUDY    43  29  57 S8        30.16F
SALMON         CLOUDY    45  28  53 CALM      30.08F
BOISE          PTCLDY    49  32  52 SE5       30.14F
SPOKANE        LGT RAIN  51  33  50 S6        30.06F
$$

REGIONAL REPORTS...ALBERTA

CITY           SKY/WX    TMP DP  RH WIND       PRES   REMARKS
EDMONTON       MOCLDY    43  32  65 SE6       29.84F
CALGARY        MOCLDY    46  27  46 S6        29.83F
LETHBRIDGE     CLEAR     46  32  57 SW14      29.89F
MEDICINE HAT   CLEAR     43  36  75 S5        29.91F
WATERTON GATE    N/A     45  27  49 SW15G24     N/A
MILK RIVER       N/A     43  34  70 SW9         N/A
$$

REGIONAL REPORTS...SASKATCHEWAN

CITY           SKY/WX    TMP DP  RH WIND       PRES   REMARKS
SWIFT CURRENT  CLEAR     39  36  87 S16G22    29.95F WCI  30
REGINA         CLOUDY    45  41  87 E5        30.03F
SASKATOON      MOCLDY    43  30  61 S7        30.01F
CYPRESS HILLS    N/A     37  32  81 S6          N/A
VAL MARIE        N/A     37  34  87 SW2         N/A
ROCKGLEN         N/A     39  32  75 SE7         N/A
ASSINIBOIA       N/A     37  36  93 S6          N/A
$$



USA.gov is the U.S. government's official web portal to all federal, state and local government web resources and services.